STARLINK-32659

Last updated on Thu Jan 23 2025 00:02:04 GMT+0000 (Coordinated Universal Time)

1 62427U 24249U 25022.46455025 .00030490 00000+0 73357-3 0 9997 2 62427 42.9995 131.9076 0001224 238.6500 121.4237 15.40728041 4748
UTC large
Height (km)
Speed (km/s)
/
Latitude / Longitude
Inclination (degrees)
Orbital Period (minutes)
Azimuth
Elevation
Range (km)
Doppler Factor

Next 0 passes for location: London (51.5072 / 0.1276)

Sorry there are no passes over London.